This is the latest recevied weather packets stored in our database for station/object N0MPM-4. If no packets are shown the sender has not sent any weather packets the latest 10 day(s).
| Time | Temp. | Humidity | Pressure | Rain* | Wind** | Luminosity | Snow |
|---|---|---|---|---|---|---|---|
| 1777581612 | 13.33° C | 52% | 1016.4 hPa | 0 mm | - | - | - |
| 1777581312 | 13.33° C | 55% | 1016.5 hPa | 0 mm | - | - | - |
| 1777581012 | 13.33° C | 57% | 1016.5 hPa | 0 mm | - | - | - |
| 1777580712 | 12.78° C | 58% | 1016.6 hPa | 0 mm | - | - | - |
| 1777580412 | 12.78° C | 58% | 1016.7 hPa | 0 mm | - | - | - |
| 1777580112 | 12.78° C | 58% | 1016.8 hPa | 0 mm | - | - | - |
| 1777579812 | 12.78° C | 56% | 1016.9 hPa | 0 mm | - | - | - |
| 1777579512 | 12.78° C | 57% | 1016.9 hPa | 0 mm | - | - | - |
| 1777579212 | 12.22° C | 57% | 1016.9 hPa | 0 mm | - | - | - |
| 1777578912 | 12.78° C | 56% | 1017 hPa | 0 mm | - | - | - |
| 1777578612 | 12.78° C | 56% | 1016.9 hPa | 0 mm | - | - | - |
| 1777578312 | 12.78° C | 60% | 1016.9 hPa | 0 mm | - | - | - |
| 1777578012 | 12.78° C | 58% | 1017 hPa | 0 mm | - | - | - |
| 1777577712 | 12.22° C | 60% | 1017.1 hPa | 0 mm | - | - | - |
| 1777577412 | 12.22° C | 60% | 1017 hPa | 0 mm | - | - | - |
| 1777577112 | 11.67° C | 60% | 1017.1 hPa | 0 mm | - | - | - |
| 1777576812 | 11.67° C | 59% | 1017.1 hPa | 0 mm | - | - | - |
| 1777576512 | 11.11° C | 67% | 1017.1 hPa | 0 mm | - | - | - |
| 1777576212 | 10.56° C | 61% | 1017.3 hPa | 0 mm | - | - | - |
| 1777575912 | 11.11° C | 62% | 1017.2 hPa | 0 mm | - | - | - |
| 1777575612 | 11.11° C | 61% | 1017.2 hPa | 0 mm | - | - | - |
| 1777575312 | 11.67° C | 58% | 1017.2 hPa | 0 mm | - | - | - |
| 1777575012 | 11.67° C | 60% | 1017.3 hPa | 0 mm | - | - | - |
| 1777574712 | 11.67° C | 60% | 1017.3 hPa | 0 mm | - | - | - |
| 1777574412 | 11.67° C | 60% | 1017.3 hPa | 0 mm | - | - | - |
* Rain latest hour (hover to see other rain measurements)
** Current wind speed in m/s (hover to see current wind gust speed)